Flag for China Weather past 2 weeks in Tianjin, Tianjin Municipality, China

Now
86 °F

Clear.


Feels Like: 85 °F
Forecast: 69 / 88 °F
Wind: 6 mph from South

Location: Tianjin / Zhangguizhu

Current Time: Jul 8, 2015 at 10:55:29 AM

Latest Report: Jul 8, 2015 at 10:30 AM


Visibility: 5 mi

Pressure: 29.86 "Hg

Humidity: 38%

Dew point: 57 °F

Location of TianjinLocation

Historic Weather in Tianjin — Graph

°F

Tianjin temperature yesterday

Maximum temperature yesterday: 88 °F (at 12:30 PM)
Minimum temperature yesterday: 68 °F (at 1:30 AM)
Average temperature yesterday: 77 °F

Past Weeks' High & Low Weather Summary

 TemperatureHumidityPressure
High93 °F (Jul 1, 1:00 PM)94% (Jun 26, 11:00 AM)29.86 "Hg (Jun 26, 11:00 AM)
Low64 °F (Jun 29, 6:00 PM)15% (Jul 2, 2:00 PM)29.39 "Hg (Jul 1, 4:00 PM)
Average77 °F61%29.69 "Hg
* Reported Jun 23 9:00 AM — Jul 8 9:30 AM, Tianjin, Weather by CustomWeather, © 2015

Note: Actual official high and low records may vary slightly from our data, if they occured in-between our weather recording intervals... More about our weather records

Advertising

Tianjin weather history for previous 24 hours

 ConditionsComfort  
Time TempWeatherWind HumidityBarometerVisibility
9:30 AM
Wed, Jul 8
84 °FHaze.3 mph48%29.86 "Hg3 mi
9:00 AM82 °FHaze.3 mph55%29.86 "Hg3 mi
8:30 AM81 °FHaze.1 mph62%29.86 "Hg3 mi
8:00 AM79 °FHaze.1 mph65%29.86 "Hg3 mi
7:30 AM77 °FFog.1 mph74%29.86 "Hg3 mi
7:00 AM75 °FFog.1 mph78%29.86 "Hg2 mi
6:30 AM73 °FFog.1 mph83%29.83 "Hg2 mi
5:30 AM70 °FFog.1 mph88%29.83 "Hg1 mi
5:00 AM70 °FFog.1 mph88%29.83 "Hg2 mi
4:30 AM68 °FFog.1 mph94%29.83 "Hg2 mi
4:00 AM68 °FFog.1 mph88%29.83 "Hg2 mi
3:30 AM68 °FFog.1 mph88%29.80 "Hg1 mi
3:00 AM70 °FFog.1 mph83%29.80 "Hg1 mi
2:30 AM70 °FFog.1 mph88%29.80 "Hg1 mi
2:00 AM70 °FFog.1 mph83%29.83 "Hg1 mi
1:30 AM72 °FFog.1 mph78%29.83 "Hg1 mi
1:00 AM70 °FFog.1 mph88%29.80 "Hg1 mi
12:30 AM72 °FFog.1 mph83%29.80 "Hg1 mi
12:00 AM72 °FFog.1 mph83%29.80 "Hg1 mi
11:30 PM
Tue, Jul 7
72 °FFog.1 mph83%29.80 "Hg1 mi
11:00 PM73 °FFog.3 mph78%29.80 "Hg1 mi
10:30 PM73 °FFog.1 mph83%29.80 "Hg1 mi
10:00 PM73 °FHaze.3 mph78%29.80 "Hg1 mi
9:30 PM73 °FHaze.3 mph78%29.80 "Hg1 mi
9:00 PM73 °FHaze.3 mph78%29.80 "Hg1 mi
8:30 PM75 °FHaze.8 mph74%29.77 "Hg1 mi
8:00 PM75 °FHaze.8 mph69%29.77 "Hg2 mi
7:30 PM77 °FHaze.10 mph61%29.77 "Hg3 mi
7:00 PM81 °FClear.8 mph54%29.77 "Hg4 mi
6:30 PM82 °FClear.10 mph48%29.74 "Hg4 mi
6:00 PM82 °FClear.10 mph51%29.74 "Hg4 mi
5:30 PM84 °FClear.8 mph45%29.74 "Hg5 mi
5:00 PM84 °FClear.10 mph43%29.74 "Hg5 mi
4:30 PM86 °FClear.8 mph40%29.77 "Hg5 mi
4:00 PM88 °FClear.10 mph38%29.77 "Hg5 mi
3:30 PM88 °FClear.10 mph35%29.77 "Hg6 mi
3:00 PM86 °FClear.8 mph38%29.77 "Hg4 mi
2:30 PM86 °FClear.10 mph43%29.77 "Hg4 mi
2:00 PM88 °FPassing clouds.13 mph38%29.77 "HgN/A
1:30 PM88 °FPassing clouds.10 mph35%29.77 "HgN/A
1:00 PM88 °FPassing clouds.8 mph29%29.77 "HgN/A
12:30 PM88 °FPassing clouds.10 mph31%29.80 "HgN/A
12:00 PM86 °FPassing clouds.6 mph33%29.80 "HgN/A
11:30 AM86 °FPassing clouds.6 mph38%29.80 "HgN/A
11:00 AM86 °FPassing clouds.6 mph38%29.80 "HgN/A
10:30 AM82 °FPassing clouds.3 mph42%29.83 "HgN/A
10:00 AM82 °FClear.6 mph42%29.83 "Hg5 mi
Weather by CustomWeather, © 2015

See weather overviewHow to use our weather pages